Atmospheric History
12/06/2017 18:17  to  12/7/2017 18:17
Change End Date:
To complete the export process:
1) Select all of the data below
2) Copy the data to the clipboard
3) Open a word processor such as Notepad
4) Paste the data into the word processor
5) Save the file

Date/Time (MDT), AirTemp, RH, Dewpoint ,AvgWindSpeed, GustWindSpeed, WindDirection, PrecipType, PrecipIntensity, PrecipAccumulation, PrecipRate ,Visibility
12/07/2017 18:15, , ,   ,2, 5, N, None, None, 0, 0 ,6560
12/07/2017 18:05, , ,   ,2, 7, N, None, None, 0, 0 ,6560
12/07/2017 18:00, , ,   ,5, 7, N, None, None, 0, 0 ,6560
12/07/2017 17:54, , ,   ,1, 7, N, None, None, 0, 0 ,6560
12/07/2017 17:44, , ,   ,7, 9, N, None, None, 0, 0 ,6560
12/07/2017 17:34, , ,   ,9, 10, N, None, None, 0, 0 ,6560
12/07/2017 17:30, , ,   ,7, 9, N, None, None, 0, 0 ,6560
12/07/2017 17:24, , ,   ,4, 9, N, None, None, 0, 0 ,6560
12/07/2017 17:14, , ,   ,6, 12, N, None, None, 0, 0 ,6560
12/07/2017 17:04, , ,   ,11, 14, N, None, None, 0, 0 ,6560
12/07/2017 17:00, , ,   ,10, 14, N, None, None, 0, 0 ,6560
12/07/2017 16:54, , ,   ,11, 14, N, None, None, 0, 0 ,6560
12/07/2017 16:44, , ,   ,0, 28, N, None, None, 0, 0 ,6560
12/07/2017 16:34, , ,   ,9, 16, N, None, None, 0, 0 ,6560
12/07/2017 16:30, , ,   ,8, 16, N, None, None, 0, 0 ,6560
12/07/2017 16:24, , ,   ,7, 9, N, None, None, 0, 0 ,6560
12/07/2017 16:14, , ,   ,5, 7, N, None, None, 0, 0 ,6560
12/07/2017 16:04, , ,   ,4, 6, N, None, None, 0, 0 ,6560
12/07/2017 16:00, , ,   ,5, 6, N, None, None, 0, 0 ,6560
12/07/2017 15:54, , ,   ,5, 9, N, None, None, 0, 0 ,6560
12/07/2017 15:44, , ,   ,7, 9, N, None, None, 0, 0 ,6560
12/07/2017 15:34, , ,   ,6, 9, N, None, None, 0, 0 ,6560
12/07/2017 15:30, , ,   ,7, 10, N, None, None, 0, 0 ,6560
12/07/2017 15:24, , ,   ,9, 10, N, None, None, 0, 0 ,6560
12/07/2017 15:14, , ,   ,8, 10, N, None, None, 0, 0 ,6560
12/07/2017 15:03, , ,   ,7, 10, N, None, None, 0, 0 ,6560
12/07/2017 15:00, , ,   ,9, 10, N, None, None, 0, 0 ,6560
12/07/2017 14:53, , ,   ,9, 12, N, None, None, 0, 0 ,6560
12/07/2017 14:43, , ,   ,9, 13, N, None, None, 0, 0 ,6560
12/07/2017 14:33, , ,   ,12, 20, N, None, None, 0, 0 ,6560
12/07/2017 14:30, , ,   ,15, 20, N, None, None, 0, 0 ,6560
12/07/2017 14:23, , ,   ,11, 19, N, None, None, 0, 0 ,6560
12/07/2017 14:13, , ,   ,12, 19, N, None, None, 0, 0 ,6560
12/07/2017 14:03, , ,   ,17, 22, N, None, None, 0, 0 ,6560
12/07/2017 14:00, , ,   ,19, 22, N, None, None, 0, 0 ,6560
12/07/2017 13:53, , ,   ,17, 25, N, None, None, 0, 0 ,6560
12/07/2017 13:43, , ,   ,21, 24, N, None, None, 0, 0 ,6560
12/07/2017 13:33, , ,   ,17, 21, N, None, None, 0, 0 ,6560
12/07/2017 13:30, , ,   ,12, 20, N, None, None, 0, 0 ,6560
12/07/2017 13:23, , ,   ,15, 21, N, None, None, 0, 0 ,6560
12/07/2017 13:13, , ,   ,15, 20, N, None, None, 0, 0 ,6560
12/07/2017 13:03, , ,   ,15, 19, N, None, None, 0, 0 ,6560
12/07/2017 13:00, , ,   ,14, 17, N, None, None, 0, 0 ,6560
12/07/2017 12:53, , ,   ,14, 18, N, None, None, 0, 0 ,6560
12/07/2017 12:43, , ,   ,14, 20, N, None, None, 0, 0 ,6560
12/07/2017 12:33, , ,   ,13, 17, N, None, None, 0, 0 ,6560
12/07/2017 12:30, , ,   ,11, 14, N, None, None, 0, 0 ,6560
12/07/2017 12:23, , ,   ,12, 15, N, None, None, 0, 0 ,6560
12/07/2017 12:13, , ,   ,12, 17, N, None, None, 0, 0 ,6560
12/07/2017 12:03, , ,   ,12, 15, N, None, None, 0, 0 ,6560
12/07/2017 12:00, , ,   ,12, 15, N, None, None, 0, 0 ,6560
12/07/2017 11:53, , ,   ,11, 15, N, None, None, 0, 0 ,6560
12/07/2017 11:42, , ,   ,11, 14, W, None, None, 0, 0 ,6560
12/07/2017 11:32, , ,   ,11, 14, W, None, None, 0, 0 ,6560
12/07/2017 11:30, , ,   ,9, 14, W, None, None, 0, 0 ,6560
12/07/2017 11:22, , ,   ,8, 12, NW, None, None, 0, 0 ,6560
12/07/2017 11:12, , ,   ,4, 9, W, None, None, 0, 0 ,6560
12/07/2017 11:02, , ,   ,4, 12, W, None, None, 0, 0 ,6560
12/07/2017 11:00, , ,   ,7, 12, NW, None, None, 0, 0 ,6560
12/07/2017 10:52, , ,   ,9, 14, W, None, None, 0, 0 ,6560
12/07/2017 10:42, , ,   ,11, 13, W, None, None, 0, 0 ,6560
12/07/2017 10:32, , ,   ,8, 14, N, None, None, 0, 0 ,6560
12/07/2017 10:30, , ,   ,9, 14, N, None, None, 0, 0 ,6560
12/07/2017 10:22, , ,   ,8, 11, W, None, None, 0, 0 ,6560
12/07/2017 10:12, , ,   ,2, 6, N, None, None, 0, 0 ,6560
12/07/2017 10:02, , ,   ,4, 8, NW, None, None, 0, 0 ,6560
12/07/2017 10:00, , ,   ,6, 10, NW, None, None, 0, 0 ,6560
12/07/2017 09:52, , ,   ,8, 12, W, None, None, 0, 0 ,6560
12/07/2017 09:42, , ,   ,7, 11, NW, None, None, 0, 0 ,6560
12/07/2017 09:32, , ,   ,7, 12, NW, None, None, 0, 0 ,6560
12/07/2017 09:30, , ,   ,7, 12, NW, None, None, 0, 0 ,6560
12/07/2017 09:22, , ,   ,9, 11, NW, None, None, 0, 0 ,6560
12/07/2017 09:12, , ,   ,9, 13, W, None, None, 0, 0 ,6560
12/07/2017 09:02, , ,   ,11, 17, W, None, None, 0, 0 ,6560
12/07/2017 09:00, , ,   ,12, 17, W, None, None, 0, 0 ,6560
12/07/2017 08:52, , ,   ,13, 17, W, None, None, 0, 0 ,6560
12/07/2017 08:42, , ,   ,12, 15, W, None, None, 0, 0 ,6560
12/07/2017 08:32, , ,   ,9, 14, NW, None, None, 0, 0 ,6560
12/07/2017 08:30, , ,   ,11, 15, NW, None, None, 0, 0 ,6560
12/07/2017 08:21, , ,   ,11, 16, NW, None, None, 0, 0 ,6560
12/07/2017 08:11, , ,   ,12, 17, W, None, None, 0, 0 ,6560
12/07/2017 08:01, , ,   ,16, 20, W, None, None, 0, 0 ,6560
12/07/2017 08:00, , ,   ,16, 20, W, None, None, 0, 0 ,6560
12/07/2017 07:51, , ,   ,11, 15, W, None, None, 0, 0 ,6560
12/07/2017 07:41, , ,   ,12, 15, NW, None, None, 0, 0 ,6560
12/07/2017 07:31, , ,   ,11, 14, NW, None, None, 0, 0 ,6560
12/07/2017 07:30, , ,   ,9, 14, NW, None, None, 0, 0 ,6560
12/07/2017 07:21, , ,   ,11, 15, W, None, None, 0, 0 ,6560
12/07/2017 07:11, , ,   ,11, 13, NW, None, None, 0, 0 ,6560
12/07/2017 07:01, , ,   ,9, 12, W, None, None, 0, 0 ,6560
12/07/2017 07:00, , ,   ,10, 12, W, None, None, 0, 0 ,6560
12/07/2017 06:51, , ,   ,10, 13, NW, None, None, 0, 0 ,6560
12/07/2017 06:41, , ,   ,12, 14, W, None, None, 0, 0 ,6560
12/07/2017 06:31, , ,   ,10, 12, W, None, None, 0, 0 ,6560
12/07/2017 06:30, , ,   ,10, 12, W, None, None, 0, 0 ,6560
12/07/2017 06:21, , ,   ,9, 12, W, None, None, 0, 0 ,6560
12/07/2017 06:11, , ,   ,10, 11, W, None, None, 0, 0 ,6560
12/07/2017 06:01, , ,   ,9, 12, W, None, None, 0, 0 ,6560
12/07/2017 06:00, , ,   ,9, 12, NW, None, None, 0, 0 ,6560
12/07/2017 05:51, , ,   ,11, 13, NW, None, None, 0, 0 ,6560
12/07/2017 05:41, , ,   ,9, 12, W, None, None, 0, 0 ,6560
12/07/2017 05:31, , ,   ,9, 13, W, None, None, 0, 0 ,6560
12/07/2017 05:30, , ,   ,9, 13, W, None, None, 0, 0 ,6560
12/07/2017 05:20, , ,   ,9, 12, W, None, None, 0, 0 ,6560
12/07/2017 05:10, , ,   ,11, 16, W, None, None, 0, 0 ,6560
12/07/2017 05:00, , ,   ,9, 13, NW, None, None, 0, 0 ,6560
12/07/2017 05:00, , ,   ,9, 13, NW, None, None, 0, 0 ,6560
12/07/2017 04:50, , ,   ,11, 14, W, None, None, 0, 0 ,6560
12/07/2017 04:40, , ,   ,12, 14, W, None, None, 0, 0 ,6560
12/07/2017 04:30, , ,   ,9, 12, NW, None, None, 0, 0 ,6560
12/07/2017 04:30, , ,   ,9, 12, NW, None, None, 0, 0 ,6560
12/07/2017 04:20, , ,   ,9, 13, NW, None, None, 0, 0 ,6560
12/07/2017 04:10, , ,   ,8, 10, W, None, None, 0, 0 ,6560
12/07/2017 04:00, , ,   ,9, 16, NW, None, None, 0, 0 ,6560
12/07/2017 04:00, , ,   ,9, 16, W, None, None, 0, 0 ,6560
12/07/2017 03:50, , ,   ,11, 15, W, None, None, 0, 0 ,6560
12/07/2017 03:40, , ,   ,14, 19, W, None, None, 0, 0 ,6560
12/07/2017 03:30, , ,   ,15, 19, W, None, None, 0, 0 ,6560
12/07/2017 03:30, , ,   ,15, 19, W, None, None, 0, 0 ,6560
12/07/2017 03:20, , ,   ,16, 20, W, None, None, 0, 0 ,6560
12/07/2017 03:10, , ,   ,17, 22, W, None, None, 0, 0 ,6560
12/07/2017 03:00, , ,   ,17, 22, W, None, None, 0, 0 ,6560
12/07/2017 03:00, , ,   ,17, 22, W, None, None, 0, 0 ,6560
12/07/2017 02:50, , ,   ,17, 21, W, None, None, 0, 0 ,6560
12/07/2017 02:39, , ,   ,17, 22, W, None, None, 0, 0 ,6560
12/07/2017 02:30, , ,   ,18, 24, W, None, None, 0, 0 ,6560
12/07/2017 02:29, , ,   ,17, 24, W, None, None, 0, 0 ,6560
12/07/2017 02:19, , ,   ,20, 23, W, None, None, 0, 0 ,6560
12/07/2017 02:09, , ,   ,20, 25, W, None, None, 0, 0 ,6560
12/07/2017 02:00, , ,   ,18, 25, W, None, None, 0, 0 ,6560
12/07/2017 01:59, , ,   ,18, 25, W, None, None, 0, 0 ,6560
12/07/2017 01:49, , ,   ,21, 25, W, None, None, 0, 0 ,6560
12/07/2017 01:39, , ,   ,17, 22, W, None, None, 0, 0 ,6560
12/07/2017 01:30, , ,   ,16, 21, W, None, None, 0, 0 ,6560
12/07/2017 01:29, , ,   ,17, 21, W, None, None, 0, 0 ,6560
12/07/2017 01:19, , ,   ,15, 21, W, None, None, 0, 0 ,6560
12/07/2017 01:09, , ,   ,16, 21, SW, None, None, 0, 0 ,6560
12/07/2017 01:00, , ,   ,17, 22, SW, None, None, 0, 0 ,6560
12/07/2017 00:59, , ,   ,17, 22, SW, None, None, 0, 0 ,6560
12/07/2017 00:49, , ,   ,13, 17, SW, None, None, 0, 0 ,6560
12/07/2017 00:39, , ,   ,15, 17, SW, None, None, 0, 0 ,6560
12/07/2017 00:30, , ,   ,13, 16, SW, None, None, 0, 0 ,6560
12/07/2017 00:29, , ,   ,12, 14, W, None, None, 0, 0 ,6560
12/07/2017 00:19, , ,   ,12, 16, SW, None, None, 0, 0 ,6560
12/07/2017 00:09, , ,   ,12, 15, SW, None, None, 0, 0 ,6560
12/07/2017 00:00, , ,   ,12, 17, SW, None, None, 0, 0 ,6560
12/06/2017 23:59, , ,   ,12, 17, SW, None, None, 0, 0 ,6560
12/06/2017 23:49, , ,   ,10, 12, SW, None, None, 0, 0 ,6560
12/06/2017 23:38, , ,   ,7, 10, W, None, None, 0, 0 ,6560
12/06/2017 23:30, , ,   ,7, 11, W, None, None, 0, 0 ,6560
12/06/2017 23:28, , ,   ,7, 11, W, None, None, 0, 0 ,6560
12/06/2017 23:18, , ,   ,8, 10, W, None, None, 0, 0 ,6560
12/06/2017 23:08, , ,   ,8, 9, W, None, None, 0, 0 ,6560
12/06/2017 23:00, , ,   ,6, 7, N, None, None, 0, 0 ,6560
12/06/2017 22:58, , ,   ,6, 7, N, None, None, 0, 0 ,6560
12/06/2017 22:48, , ,   ,4, 8, N, None, None, 0, 0 ,6560
12/06/2017 22:38, , ,   ,7, 9, N, None, None, 0, 0 ,6560
12/06/2017 22:30, , ,   ,1, 5, N, None, None, 0, 0 ,6560
12/06/2017 22:28, , ,   ,2, 5, N, None, None, 0, 0 ,6560
12/06/2017 22:18, , ,   ,2, 3, N, None, None, 0, 0 ,6560
12/06/2017 22:08, , ,   ,0, 2, N, None, None, 0, 0 ,6560
12/06/2017 22:00, , ,   ,1, 2, N, None, None, 0, 0 ,6560
12/06/2017 21:58, , ,   ,2, 2, N, None, None, 0, 0 ,6560
12/06/2017 21:48, , ,   ,1, 2, N, None, None, 0, 0 ,6560
12/06/2017 21:38, , ,   ,0, 4, N, None, None, 0, 0 ,6560
12/06/2017 21:30, , ,   ,2, 4, N, None, None, 0, 0 ,6560
12/06/2017 21:28, , ,   ,2, 3, N, None, None, 0, 0 ,6560
12/06/2017 21:18, , ,   ,3, 4, N, None, None, 0, 0 ,6560
12/06/2017 21:08, , ,   ,4, 4, N, None, None, 0, 0 ,6560
12/06/2017 21:00, , ,   ,3, 4, N, None, None, 0, 0 ,6560
12/06/2017 20:58, , ,   ,3, 4, N, None, None, 0, 0 ,6560
12/06/2017 20:47, , ,   ,4, 6, N, None, None, 0, 0 ,6560
12/06/2017 20:37, , ,   ,3, 6, N, None, None, 0, 0 ,6560
12/06/2017 20:30, , ,   ,4, 6, N, None, None, 0, 0 ,6560
12/06/2017 20:27, , ,   ,2, 4, N, None, None, 0, 0 ,6560
12/06/2017 20:17, , ,   ,0, 2, N, None, None, 0, 0 ,6560
12/06/2017 20:07, , ,   ,1, 2, N, None, None, 0, 0 ,6560
12/06/2017 20:00, , ,   ,0, 1, N, None, None, 0, 0 ,6560
12/06/2017 19:57, , ,   ,0, 0, N, None, None, 0, 0 ,6560
12/06/2017 19:47, , ,   ,0, 1, N, None, None, 0, 0 ,6560
12/06/2017 19:37, , ,   ,1, 4, N, None, None, 0, 0 ,6560
12/06/2017 19:30, , ,   ,3, 6, N, None, None, 0, 0 ,6560
12/06/2017 19:27, , ,   ,5, 6, N, None, None, 0, 0 ,6560
12/06/2017 19:17, , ,   ,1, 2, N, None, None, 0, 0 ,6560
12/06/2017 19:07, , ,   ,2, 4, N, None, None, 0, 0 ,6560
12/06/2017 19:00, , ,   ,4, 6, N, None, None, 0, 0 ,6560
12/06/2017 18:57, , ,   ,4, 7, N, None, None, 0, 0 ,6560
12/06/2017 18:47, , ,   ,7, 7, N, None, None, 0, 0 ,6560
12/06/2017 18:37, , ,   ,7, 9, N, None, None, 0, 0 ,6560
12/06/2017 18:30, , ,   ,7, 9, N, None, None, 0, 0 ,6560
12/06/2017 18:27, , ,   ,5, 6, E, None, None, 0, 0 ,6560
12/06/2017 18:17, , ,   ,4, 5, NE, None, None, 0, 0 ,6560
Change End Date:

Copyright © 1998-2015 Vaisala, Inc.
All Rights Reserved
Send comments about the data to:
SCAN Web ® is a registered trademark of Vaisala, Inc.
SCAN Web Version 6.0